Stations météo

Publicité
Braemar, Grande-Bretagne (99089): Température de l'air & dewpoint: 20.09.2017 12:00:00 - 26.09.2017 12:00:00 (BST)Braemar, Grande-Bretagne (99089): Température de l'air -20cm & Température de l'air -100cm: 20.09.2017 12:00:00 - 26.09.2017 12:00:00 (BST)Braemar, Grande-Bretagne (99089): Quantités de précipitations: 20.09.2017 12:00:00 - 26.09.2017 12:00:00 (BST)
Date & Time tt [°C] td [°C] tt -20cm [°C] tt -100cm [°C] rr [mm]
26.09.2017 12:00:00 - - - - -
26.09.2017 11:00:00 12,7 10,7 - - 0,0
26.09.2017 10:00:00 13,2 11,1 11,5 10,9 0,0
26.09.2017 09:00:00 12,1 11,0 - - 0,0
26.09.2017 08:00:00 12,1 10,8 - - 0,0
26.09.2017 07:00:00 11,7 11,5 - - 0,0
26.09.2017 06:00:00 11,2 11,1 - - 0,0
26.09.2017 05:00:00 10,3 10,3 - - 0,0
26.09.2017 04:00:00 9,8 9,8 - - 0,0
26.09.2017 03:00:00 9,5 9,5 - - 0,0
26.09.2017 02:00:00 9,3 9,3 - - 0,0
26.09.2017 01:00:00 8,9 8,9 - - 0,0
26.09.2017 00:00:00 8,6 8,6 - - 0,0
25.09.2017 23:00:00 8,1 8,0 - - 0,0
25.09.2017 22:00:00 8,6 8,5 - - 0,0
25.09.2017 21:00:00 9,7 9,0 - - 0,0
25.09.2017 20:00:00 11,3 11,0 - - 0,0
25.09.2017 19:00:00 11,7 11,2 - - 0,0
25.09.2017 18:00:00 12,2 11,7 - - 0,0
25.09.2017 17:00:00 12,5 11,5 - - 0,0
25.09.2017 16:00:00 11,9 11,2 - - 0,0
25.09.2017 15:00:00 11,2 10,8 - - 0,2
25.09.2017 14:00:00 11,2 10,5 - - 0,0
25.09.2017 13:00:00 11,3 10,5 - - 0,0
25.09.2017 12:00:00 11,0 10,4 - - 0,2
25.09.2017 11:00:00 10,7 10,3 - - 0,4
25.09.2017 10:00:00 10,4 10,2 11,7 10,7 1,8
25.09.2017 09:00:00 10,2 10,0 - - 1,2
25.09.2017 08:00:00 10,3 10,0 - - 0,8
25.09.2017 07:00:00 10,6 10,0 - - 1,2
25.09.2017 06:00:00 11,8 9,7 - - 1,2
25.09.2017 05:00:00 11,7 11,4 - - 1,0
25.09.2017 04:00:00 12,1 11,7 - - 0,4
25.09.2017 03:00:00 11,6 11,3 - - 0,2
25.09.2017 02:00:00 11,5 11,2 - - 1,6
25.09.2017 01:00:00 11,8 11,4 - - 2,0
25.09.2017 00:00:00 11,7 11,5 - - 2,4
24.09.2017 23:00:00 11,3 11,1 - - 1,2
24.09.2017 22:00:00 11,2 11,0 - - 4,0
24.09.2017 21:00:00 11,4 11,0 - - 0,6
24.09.2017 20:00:00 11,6 10,9 - - 0,8
24.09.2017 19:00:00 12,6 10,3 - - 0,2
24.09.2017 18:00:00 13,6 9,9 - - 0,0
24.09.2017 17:00:00 14,0 10,2 - - 0,0
24.09.2017 16:00:00 13,1 10,7 - - 0,2
24.09.2017 15:00:00 13,1 11,0 - - 0,0
24.09.2017 14:00:00 13,8 10,9 - - 0,0
24.09.2017 13:00:00 13,2 11,1 - - 0,0
24.09.2017 12:00:00 12,6 10,2 - - 0,6
24.09.2017 11:00:00 13,9 10,3 - - 0,0
24.09.2017 10:00:00 14,7 9,4 11,2 10,7 0,0
24.09.2017 09:00:00 13,9 9,0 - - 0,0
24.09.2017 08:00:00 13,0 8,0 - - 0,0
24.09.2017 07:00:00 12,5 8,7 - - 0,0
24.09.2017 06:00:00 12,0 8,2 - - 0,0
24.09.2017 05:00:00 12,1 8,9 - - 0,0
24.09.2017 04:00:00 12,1 8,9 - - 0,0
24.09.2017 03:00:00 13,7 9,8 - - 0,0
24.09.2017 02:00:00 14,0 10,5 - - 0,0
24.09.2017 01:00:00 13,9 10,1 - - 0,0
24.09.2017 00:00:00 13,8 10,0 - - 0,0
23.09.2017 23:00:00 14,2 10,2 - - 0,0
23.09.2017 22:00:00 14,1 10,2 - - 0,0
23.09.2017 21:00:00 14,2 11,4 - - 0,0
23.09.2017 20:00:00 14,5 11,5 - - 0,0
23.09.2017 19:00:00 14,1 11,5 - - 0,0
23.09.2017 18:00:00 14,2 11,4 - - 0,0
23.09.2017 17:00:00 13,7 11,3 - - 0,0
23.09.2017 16:00:00 14,0 10,7 - - 0,0
23.09.2017 15:00:00 13,9 10,4 - - 0,0
23.09.2017 14:00:00 14,6 9,0 - - 0,0
23.09.2017 13:00:00 14,3 9,2 - - 0,0
23.09.2017 12:00:00 14,5 8,9 - - 0,0
23.09.2017 11:00:00 12,9 9,0 - - 0,0
23.09.2017 10:00:00 12,3 9,2 10,5 10,7 0,0
23.09.2017 09:00:00 12,4 9,1 - - 0,0
23.09.2017 08:00:00 12,0 9,3 - - 0,0
23.09.2017 07:00:00 11,9 9,8 - - 0,0
23.09.2017 06:00:00 11,3 8,9 - - 0,0
23.09.2017 05:00:00 11,4 8,7 - - 0,0
23.09.2017 04:00:00 10,7 8,6 - - 0,0
23.09.2017 03:00:00 10,1 7,7 - - 0,0
23.09.2017 02:00:00 11,3 8,4 - - 0,0
23.09.2017 01:00:00 10,7 9,5 - - 0,0
23.09.2017 00:00:00 10,7 9,6 - - 0,0
22.09.2017 23:00:00 11,0 9,2 - - 0,0
22.09.2017 22:00:00 10,5 8,9 - - 0,0
22.09.2017 21:00:00 10,3 7,9 - - 0,0
22.09.2017 20:00:00 10,1 7,5 - - 0,0
22.09.2017 19:00:00 10,1 7,4 - - 0,0
22.09.2017 18:00:00 10,2 6,8 - - 0,0
22.09.2017 17:00:00 11,1 7,6 - - 0,0
22.09.2017 16:00:00 11,7 7,6 - - 0,0
22.09.2017 15:00:00 12,1 6,7 - - 0,0
22.09.2017 14:00:00 12,1 8,2 - - 0,0
22.09.2017 13:00:00 11,4 8,4 - - 0,2
22.09.2017 12:00:00 9,2 8,0 - - 0,2
22.09.2017 11:00:00 9,8 7,3 - - 0,0
22.09.2017 10:00:00 3,9 3,9 10,7 10,9 0,0
22.09.2017 09:00:00 0,5 0,5 - - 0,0
22.09.2017 08:00:00 -0,3 -0,3 - - 0,0
22.09.2017 07:00:00 -1,0 -1,1 - - 0,0
22.09.2017 06:00:00 -0,6 -0,6 - - 0,0
22.09.2017 05:00:00 -0,7 -0,7 - - 0,0
22.09.2017 04:00:00 -0,2 -0,3 - - 0,0
22.09.2017 03:00:00 0,5 0,5 - - 0,0
22.09.2017 02:00:00 0,9 0,8 - - 0,0
22.09.2017 01:00:00 1,6 1,5 - - 0,0
22.09.2017 00:00:00 2,3 2,2 - - 0,0
21.09.2017 23:00:00 2,6 2,3 - - 0,2
21.09.2017 22:00:00 4,7 4,3 - - 0,0
21.09.2017 21:00:00 5,6 5,3 - - 0,0
21.09.2017 20:00:00 7,3 6,5 - - 0,0
21.09.2017 19:00:00 10,2 8,6 - - 0,0
21.09.2017 18:00:00 10,0 8,4 - - 0,8
21.09.2017 17:00:00 9,7 8,7 - - 0,8
21.09.2017 16:00:00 10,2 9,2 - - 1,6
21.09.2017 15:00:00 10,8 9,9 - - 2,0
21.09.2017 14:00:00 10,8 9,7 - - 1,0
21.09.2017 13:00:00 11,1 9,7 - - 0,0
21.09.2017 12:00:00 10,6 9,8 - - 0,2
21.09.2017 11:00:00 10,1 9,4 - - 0,6
21.09.2017 10:00:00 9,7 8,9 11,0 10,9 0,6
21.09.2017 09:00:00 9,3 8,6 - - 1,4
21.09.2017 08:00:00 9,2 8,7 - - 2,4
21.09.2017 07:00:00 9,4 8,7 - - 0,2
21.09.2017 06:00:00 9,8 8,6 - - 0,2
21.09.2017 05:00:00 9,9 8,5 - - 0,2
21.09.2017 04:00:00 10,0 9,4 - - 0,2
21.09.2017 03:00:00 10,2 9,8 - - 0,0
21.09.2017 02:00:00 10,9 10,2 - - 0,2
21.09.2017 01:00:00 11,7 11,4 - - 0,8
21.09.2017 00:00:00 12,4 12,2 - - 0,6
20.09.2017 23:00:00 12,4 12,2 - - 0,0
20.09.2017 22:00:00 12,4 12,2 - - 0,6
20.09.2017 21:00:00 12,5 12,3 - - 1,6
20.09.2017 20:00:00 12,7 12,2 - - 1,4
20.09.2017 19:00:00 13,2 12,3 - - 0,8
20.09.2017 18:00:00 13,1 12,5 - - 0,8
20.09.2017 17:00:00 13,4 12,3 - - 0,0
20.09.2017 16:00:00 14,4 11,6 - - 0,0
20.09.2017 15:00:00 14,7 11,3 - - 0,0
20.09.2017 14:00:00 14,7 11,9 - - 0,0
20.09.2017 13:00:00 14,1 11,4 - - 0,0
20.09.2017 12:00:00 12,7 11,2 - - 0,0

tt = Température de l'air
td = dewpoint
tt -20cm = Température de l'air -20cm
tt -100cm = Température de l'air -100cm
rr = Quantités de précipitations

stations d'obs. à proximité